2019 SL7
ephemeris date magn radius delta ra dec elong phase
Today16 Oct 202533.04.214 AU4.776 AU16h47m-20°11'50.6°10.5°
2019 SL7 - 2025-10-16
astro.vanbuitenen.nl


 
-1 year
-1 month
-1 day
Now
+1 day
+1 month
+1 year

The interactive orbit chart above shows the body's path through the solar system and its position at the given date. Green and blue lines are shown perpendicular to the ecliptic plane: Green if the path is above the ecliptic plane, blue if it is below. (Left-click and drag to rotate the view; Right-click and drag to move the view; Use scroll wheel to zoom in our out.)

The orbital elements of 2019 SL7 are:

            e (Eccentricity)                : 0.6977430
            a (Semimajor axis)              : 2.4826505
            i (Inclination)                 : 2.73731
            Ω (Longitude of ascending node) : 198.55179
            ω (Argument of perihelion)      : 244.14900
            M (Mean anomaly)                : 142.41613
            Epoch                           : 2025 May 05

            L (Longitude of perihelion)     : 262.67511
            B (Latitude of perihelion)      : -2.46321
            P (Orbital period in years)     : 3.91            
        

The light curve chart below shows the estimated development of the minor planet's magnitude.


The all-sky chart below shows the path of the minor planet over the same period as the light curve. The current position is marked yellow.





The following chart shows the path of the minor planet in the next few days. The field of view is optimized for (~10x50) binoculars and finderscopes. A more printer-friendly version of the same chart can be found below.




Ephemerides:
Date       Time       RA (2000)    DEC (2000)    delta   radius  elong  phase   PA    magn
2025-10-16 00:00 UT   16 47 44.4   -20 11 36     4.776    4.214   50.6   10.5    95   33.0 
2025-10-16 16:43 UT   16 48 17.6   -20 12 46     4.784    4.214   50.0   10.4    95   33.0 
2025-10-17 00:00 UT   16 48 32.2   -20 13 16     4.788    4.213   49.8   10.4    95   33.0 
2025-10-18 00:00 UT   16 49 20.5   -20 14 55     4.800    4.213   49.0   10.3    95   33.0 
2025-10-19 00:00 UT   16 50 09.2   -20 16 34     4.812    4.213   48.2   10.1    95   33.0 
2025-10-20 00:00 UT   16 50 58.4   -20 18 12     4.823    4.213   47.4   10.0    95   33.0 
2025-10-21 00:00 UT   16 51 48.1   -20 19 50     4.834    4.213   46.6    9.9    95   33.0 
2025-10-22 00:00 UT   16 52 38.1   -20 21 27     4.846    4.212   45.8    9.7    95   33.0 
2025-10-23 00:00 UT   16 53 28.6   -20 23 03     4.857    4.212   45.0    9.6    94   33.0 
2025-10-24 00:00 UT   16 54 19.5   -20 24 39     4.868    4.212   44.2    9.5    94   33.0 
2025-10-25 00:00 UT   16 55 10.9   -20 26 14     4.878    4.212   43.4    9.3    94   33.0 
2025-10-26 00:00 UT   16 56 02.6   -20 27 48     4.889    4.211   42.6    9.2    94   33.0 
2025-10-27 00:00 UT   16 56 54.7   -20 29 21     4.899    4.211   41.8    9.1    94   33.0 
2025-10-28 00:00 UT   16 57 47.2   -20 30 54     4.910    4.211   41.0    8.9    94   33.0 
2025-10-29 00:00 UT   16 58 40.1   -20 32 26     4.920    4.210   40.2    8.8    94   33.0 
2025-10-30 00:00 UT   16 59 33.3   -20 33 56     4.929    4.210   39.4    8.6    93   33.0 
2025-10-31 00:00 UT   17 00 26.9   -20 35 26     4.939    4.210   38.7    8.5    93   33.0 
2025-11-01 00:00 UT   17 01 20.9   -20 36 55     4.949    4.209   37.9    8.3    93   33.0 
2025-11-02 00:00 UT   17 02 15.2   -20 38 23     4.958    4.209   37.1    8.2    93   33.0 
2025-11-03 00:00 UT   17 03 09.9   -20 39 50     4.967    4.209   36.3    8.0    93   33.0 
2025-11-04 00:00 UT   17 04 04.9   -20 41 16     4.976    4.208   35.5    7.9    93   33.0 
2025-11-05 00:00 UT   17 05 00.2   -20 42 41     4.985    4.208   34.7    7.7    92   33.0 
2025-11-06 00:00 UT   17 05 55.8   -20 44 04     4.993    4.207   34.0    7.6    92   33.0 
2025-11-07 00:00 UT   17 06 51.8   -20 45 27     5.002    4.207   33.2    7.4    92   33.0 
2025-11-08 00:00 UT   17 07 48.0   -20 46 48     5.010    4.207   32.4    7.2    92   33.0 
2025-11-09 00:00 UT   17 08 44.6   -20 48 09     5.018    4.206   31.6    7.1    92   33.0 
2025-11-10 00:00 UT   17 09 41.4   -20 49 27     5.025    4.206   30.8    6.9    91   33.0 
2025-11-11 00:00 UT   17 10 38.6   -20 50 45     5.033    4.205   30.0    6.8    91   33.0 
2025-11-12 00:00 UT   17 11 36.0   -20 52 02     5.040    4.205   29.3    6.6    91   33.0 
2025-11-13 00:00 UT   17 12 33.7   -20 53 17     5.047    4.204   28.5    6.4    91   32.9 
2025-11-14 00:00 UT   17 13 31.7   -20 54 31     5.054    4.204   27.7    6.3    91   32.9 
2025-11-15 00:00 UT   17 14 30.0   -20 55 43     5.061    4.203   26.9    6.1    90   32.9 


    Terminology:
            
    delta:  distance between minor planet and earth in AU
    radius: distance between minor planet and sun in AU
    magn:   magnitude (brightness) estimate    
    ra:     right ascension in hours (24h = 360deg)
    dec:    declination in degrees
    elong:  elongation in degrees (angle sun-earth-minor planet)    
    phase:  phase angle in degrees (angle sun-minor planet-earth)        
    AU:     Astronomical Unit (mean distance between earth and sun: 149597870.7 km
    

Orbital elements provided by the MPC (Minor Planet Center).
Calculations by a modified version of AAPlus, a C# implementation of the AA+ project by PJ Naughter from the algorithms presented in the book "Astronomical Algorithms" by Jean Meeus.
NGC2000 dso catalog and star labels from VizieR as provided by the Strasbourg astronomical Data Center.
Tycho2 catalog from the ESO archive.